This is the latest recevied weather packets stored in our database for station/object N4HAC. If no packets are shown the sender has not sent any weather packets the latest 10 day(s).
| Time | Temp. | Humidity | Pressure | Rain* | Wind** | Luminosity | Snow |
|---|---|---|---|---|---|---|---|
| 1777818279 | 10° C | 47% | 1012.4 hPa | 0 mm | - | 707 W/m² | - |
| 1777817975 | 10° C | 47% | 1012.4 hPa | 0 mm | - | 700 W/m² | - |
| 1777817672 | 9.44° C | 48% | 1012.3 hPa | 0 mm | - | 704 W/m² | - |
| 1777817369 | 9.44° C | 48% | 1012.6 hPa | 0 mm | - | 682 W/m² | - |
| 1777817066 | 8.89° C | 50% | 1012.5 hPa | 0 mm | - | 650 W/m² | - |
| 1777816762 | 8.89° C | 50% | 1012.4 hPa | 0 mm | - | 645 W/m² | - |
| 1777816460 | 8.89° C | 49% | 1012.4 hPa | 0 mm | - | 644 W/m² | - |
| 1777816157 | 9.44° C | 52% | 1012.3 hPa | 0 mm | - | 616 W/m² | - |
| 1777815855 | 8.89° C | 49% | 1012.5 hPa | 0 mm | - | 604 W/m² | - |
| 1777815552 | 8.89° C | 50% | 1012.3 hPa | 0 mm | - | 602 W/m² | - |
| 1777815250 | 8.33° C | 51% | 1012.3 hPa | 0 mm | - | 583 W/m² | - |
| 1777814945 | 8.33° C | 53% | 1012.3 hPa | 0 mm | - | 556 W/m² | - |
| 1777814642 | 8.89° C | 52% | 1012.5 hPa | 0 mm | - | 358 W/m² | - |
| 1777814339 | 8.89° C | 53% | 1012.5 hPa | 0 mm | - | 514 W/m² | - |
| 1777814035 | 8.33° C | 55% | 1012.4 hPa | 0 mm | - | 495 W/m² | - |
| 1777813733 | 7.78° C | 54% | 1012.5 hPa | 0 mm | - | 413 W/m² | - |
| 1777813430 | 8.33° C | 53% | 1012.6 hPa | 0 mm | - | 437 W/m² | - |
| 1777813127 | 7.78° C | 54% | 1012.6 hPa | 0 mm | - | 409 W/m² | - |
| 1777812826 | 7.78° C | 55% | 1012.6 hPa | 0 mm | - | 364 W/m² | - |
| 1777812522 | 7.78° C | 57% | 1012.8 hPa | 0 mm | - | 333 W/m² | - |
| 1777812219 | 7.22° C | 55% | 1012.4 hPa | 0 mm | - | 299 W/m² | - |
| 1777811917 | 7.22° C | 56% | 1012.6 hPa | 0 mm | - | 279 W/m² | - |
| 1777811616 | 7.22° C | 57% | 1012.6 hPa | 0 mm | - | 266 W/m² | - |
| 1777811311 | 7.22° C | 57% | 1012.4 hPa | 0 mm | - | 257 W/m² | - |
| 1777811008 | 7.22° C | 57% | 1012.5 hPa | 0 mm | - | 261 W/m² | - |
* Rain latest hour (hover to see other rain measurements)
** Current wind speed in m/s (hover to see current wind gust speed)